Vrubivka

Ukraine / Luhansk Region     48˚44′41″N   38˚22′43″E
temp.,
°C
wind,
m/s
gust,
m/s
humid.,
%
clouds,
%
prec.,
mm/h
press.,
hPa
HPBL,
m
27 november, fri
fri2723:00+1˚ssw368440 0.0 1026195
02:00+2˚sw488470 0.0 1026241
05:00+1˚sw499097 0.0 1025245
08:00+2˚ssw6118693 0.0 1025332
11:00+5˚sw711740 0.0 1024717
14:00+5˚sw611764 0.0 1023774
17:00+4˚ssw41182100 0.0 1022377
20:00+5˚sw41188100 0.0 1022441
28 november, sat
sat2823:00+5˚ssw41085100 0.0 1023350
02:00+5˚ssw41084100 0.0 1023346
05:00+5˚s5108899 0.0 1022343
08:00+6˚s6109199 0.0 1023396
11:00+6˚s597998 0.0 1024519
14:00+7˚sse477799 0.0 1024594
17:00+4˚se4886100 0.0 1024246
20:00+3˚se3891100 0.0 1025247
29 november, sun
sun2923:00+1˚ese368766 0.0 1025157
02:00ese379471 0.0 1025177
05:00+3˚se51095100 0.0 1024457
08:00+4˚se71193100 0.0 1025607
11:00+6˚sse71279100 0.0 1025752
14:00+8˚se7117499 0.0 1025799
17:00+6˚se6138099 0.0 1025594
20:00+6˚se6128199 0.0 1026669
30 november, mon
mon3023:00+6˚se61182100 0.0 1026671
02:00+6˚se51184100 0.0 1027692
05:00+5˚ese61183100 0.0 1026664
08:00+5˚ese71177100 0.0 1028712
11:00+5˚ese7106795 0.0 1027830
14:00+5˚ese7106897 0.0 10271063
17:00+4˚ese61071100 0.0 1027873
20:00+3˚ese71266100 0.0 1028738
1 december, tue
tue123:00+1˚ese6127156 0.0 1029575
02:00ese6127747 0.0 1028563
05:00−1˚e6138215 0.0 1029557
08:00−1˚e8148041 0.0 1029641
11:00+1˚ese8137095 0.0 1028772
14:00+2˚ese8127094 0.0 1027895
17:00+1˚ese71174100 0.0 1028949
20:00ese81276100 0.0 1028748